Weather History for KGCN - January, 2013

Change the Weather History Date:

Saturday, January 5, 2013

  Actual Average Record
Temperature  
Mean Temperature 20 °F -  
Max Temperature 44 °F 42 °F 57 °F (1999)
Min Temperature -5 °F 15 °F -8 °F (2011)
Degree Days  
Heating Degree Days 46    
Moisture  
Dew Point -2 °F    
Average Humidity 53    
Maximum Humidity 76    
Minimum Humidity 11    
Precipitation  
Precipitation 0.00 in - - ()
Sea Level Pressure  
Sea Level Pressure 30.44 in    
Wind  
Wind Speed 1 mph (ENE)    
Max Wind Speed 9 mph    
Max Gust Speed -    
Visibility 10 miles    
Events      
Averages and records for this station are not official NWS values.
T = Trace of Precipitation, MM = Missing Value Source: NWS Daily Summary

Daily Weather History Graph

Daily Weather History Graph

Search for Another Location

Airport or City:

Trip Planner

Search our weather history database for the weather conditions in past years. The results will help you decide how hot, cold, wet, or windy it might be!

Date:

Astronomy

Jan. 05, 2013 Rise Set
Actual Time 7:39 AM MST 5:29 PM MST
Civil Twilight 7:11 AM MST 5:57 PM MST
Nautical Twilight 6:39 AM MST 6:29 PM MST
Astronomical Twilight 6:08 AM MST 7:00 PM MST
Moon 12:56 AM MST (1/5) 12:15 PM MST (1/5)
Length of Visible Light 10h 46m
Length of Day
9h 49m
Last Quarter, 43% of the Moon is Illuminated
Jan 5
Last Quarter
Jan 11
New
Jan 18
First Quarter
Jan 26
Full
Feb 3
Last Quarter

Hourly Weather History & Observations

Time (MST) Temp. Windchill Dew Point Humidity Pressure Visibility Wind Dir Wind Speed Gust Speed Precip Events Conditions
12:54 AM -0.9 °F - -9.0 °F 69% 30.38 in 10.0 mi Calm Calm - N/A   Clear
1:54 AM -2.0 °F - -8.0 °F 76% 30.38 in 10.0 mi Calm Calm - N/A   Clear
2:54 AM -2.0 °F - -9.0 °F 72% 30.40 in 10.0 mi Calm Calm - N/A   Clear
3:54 AM -2.9 °F - -9.0 °F 75% 30.41 in 10.0 mi Calm Calm - N/A   Clear
4:54 AM -2.9 °F - -9.9 °F 72% 30.42 in 10.0 mi Calm Calm - N/A   Clear
5:54 AM -5.1 °F - -11.0 °F 76% 30.52 in 10.0 mi Calm Calm - N/A   Clear
6:54 AM -4.0 °F - -11.0 °F 72% 30.58 in 10.0 mi Calm Calm - N/A   Clear
7:54 AM -4.0 °F - -11.0 °F 72% 30.59 in 10.0 mi Calm Calm - N/A   Clear
8:54 AM 3.9 °F - -7.1 °F 60% 30.57 in 10.0 mi Calm Calm - N/A   Clear
9:54 AM 21.0 °F 16.2 °F 1.0 °F 42% 30.51 in 10.0 mi NE 3.5 mph - N/A   Clear
10:54 AM 37.0 °F - -7.1 °F 15% 30.46 in 10.0 mi Calm Calm - N/A   Clear
11:54 AM 42.1 °F - -9.9 °F 11% 30.41 in 10.0 mi Calm Calm - N/A   Clear
12:54 PM 43.0 °F 40.3 °F 3.0 °F 19% 30.38 in 10.0 mi SSW 4.6 mph - N/A   Clear
1:54 PM 43.0 °F 38.8 °F 7.0 °F 23% 30.36 in 10.0 mi SSW 6.9 mph - N/A   Clear
2:54 PM 44.1 °F 42.5 °F 3.9 °F 19% 30.36 in 10.0 mi SW 3.5 mph - N/A   Clear
4:54 PM 39.0 °F 36.8 °F 6.1 °F 26% 30.41 in 10.0 mi SSW 3.5 mph - N/A   Clear
5:54 PM 24.1 °F 19.7 °F 10.0 °F 55% 30.49 in 10.0 mi NE 3.5 mph - N/A   Clear
6:54 PM 21.0 °F 13.4 °F 7.0 °F 55% 30.51 in 10.0 mi NE 5.8 mph - N/A   Clear
7:54 PM 17.1 °F - 7.0 °F 65% 30.52 in 10.0 mi Calm Calm - N/A   Clear
8:54 PM 12.0 °F 4.1 °F 3.9 °F 70% 30.51 in 10.0 mi ENE 4.6 mph - N/A   Clear
9:54 PM 12.9 °F 5.2 °F 1.0 °F 59% 30.41 in 10.0 mi NE 4.6 mph - N/A   Clear
10:54 PM 12.0 °F 4.1 °F 1.9 °F 64% 30.35 in 10.0 mi NE 4.6 mph - N/A   Clear
11:54 PM 14.0 °F 2.0 °F -0.0 °F 54% 30.30 in 10.0 mi ENE 9.2 mph - N/A   Clear